Preview of NWS' New Version of Forecast
This preview is not operational and should not be used for support decisions.

Regional Weather Roundup (RWR)

Issued by National Weather Service (NWS)

                            
000
ASUS43 KDMX 201106
RWRIA 

WEATHER ROUNDUP FOR IOWA
NATIONAL WEATHER SERVICE DES MOINES IA
500 AM CST WED FEB 20 2019

NOTE: "FAIR" INDICATES FEW OR NO CLOUDS BELOW 12,000 FEET WITH NO
SIGNIFICANT WEATHER AND/OR OBSTRUCTIONS TO VISIBILITY.

* - THESE STATIONS ARE NOT NWS STATIONS...THUS NOT UNDER NWS
QUALITY CONTROL.  THEY ALSO DO NOT REPORT WEATHER SUCH 
AS PRECIPITATION OR FOG.  

IAZ001>003-012>014-020>022-031>034-043>046-201200-
   NORTHWEST IOWA
  
CITY           SKY/WX    TMP DP  RH WIND       PRES   REMARKS
CARROLL *      CLOUDY    25  25 100 S5        29.79F FOG     WCI  19  
CHEROKEE *     LGT SNOW  22  22 100 E5        29.79F WCI  16          
DENISON *      CLOUDY    25  25 100 CALM      29.79F FOG              
LE MARS *      LGT SNOW  19  19 100 NE6       29.79F VSB 1   WCI  11  
ORANGE CITY *  LGT SNOW  19  19 100 E5        29.78F WCI  13          
SHELDON *      LGT SNOW  19  19 100 NE6       29.78F WCI  11          
SIOUX CITY     LGT SNOW  20  17  88 E6        29.78F FOG     WCI  12  
SPENCER        SNOW      23  20  88 S8        29.81R VSB 1/4 WCI  14  
STORM LAKE *   LGT SNOW  21  21 100 S6        29.78F WCI  14          
$$
 
IAZ055>058-069>071-079>083-090>094-201200-
   SOUTHWEST IOWA
  
CITY           SKY/WX    TMP DP  RH WIND       PRES   REMARKS
ATLANTIC *     MIX PCPN  27  27 100 CALM      29.78F                  
AUDUBON *      LGT SNOW  25  21  86 CALM      29.78F                  
CLARINDA *     CLOUDY    27  27 100 S7        29.80F FOG     WCI  19  
COUNCIL BLFS * CLOUDY    25  25 100 CALM      29.76F FOG              
CRESTON *      CLOUDY    27  27 100 SE14      29.77F FOG     WCI  15  
HARLAN  *      CLOUDY    25  25 100 SE5       29.77F FOG     WCI  19  
LAMONI         LGT SNOW  27  25  92 SE8       29.76F FOG     WCI  19  
RED OAK *      LGT SNOW  27  27 100 CALM      29.78F                  
SHENANDOAH *   MIX PCPN  28  28 100 S5        29.79F WCI  23          
$$
 
IAZ047>049-059>061-072>074-084-201200-
   CENTRAL IOWA
  
CITY           SKY/WX    TMP DP  RH WIND       PRES   REMARKS
AMES           LGT SNOW  26  24  92 E15       29.78F VSB 3/4 WCI  14  
ANKENY *       LGT SNOW  28  27  93 SE13G21   29.80F VSB 1   WCI  18  
BOONE *        LGT SNOW  27  27 100 SE20G25   29.76F VSB 1   WCI  13  
CHARITON *     LGT SNOW  27  27 100 SE12      29.78F WCI  16          
DES MOINES     LGT SNOW  27  25  92 SE10      29.79F VSB 1   WCI  17  
GRINNELL*      LGT SNOW  27  26  96 E20G26    29.80F WCI  13          
KNOXVILLE *    LGT SNOW  27  28 100 SE16G23   29.79F WCI  14          
MARSHALLTOWN   LGT SNOW  25  25 100 E22       29.79F VSB 1   WCI  10  
NEWTON *       LGT SNOW  27  27 100 E22       29.79F WCI  12          
PELLA *        LGT SNOW  28  26  92 SE12G17   29.81F WCI  18          
PERRY *        LGT SNOW  26  26 100 CALM      29.79F                  
$$
 
IAZ004>006-015-016-023>025-035-036-201200-
   NORTH CENTRAL IOWA
  
CITY           SKY/WX    TMP DP  RH WIND       PRES   REMARKS
ALGONA *       LGT SNOW  23  23 100 E16G25    29.77F WCI  10          
CLARION *      FOG       25  25 100 E23G36    29.77F VSB 3/4 WCI  10  
ESTHERVILLE    LGT SNOW  21  19  92 E17       29.78F FOG     WCI   7  
FORT DODGE *   LGT SNOW  25  23  92 SE12      29.79S FOG     WCI  14  
MASON CITY     FRZ RAIN  23  22  96 E21G30    29.82F FOG     WCI   8  
FOREST CITY *  LGT SNOW  27  23  86 E17G24    29.81F WCI  14          
IOWA FALLS *   SNOW      26  25  94 E18G24    29.80F VSB 1/2 WCI  13  
$$

IAZ007>011-017>019-026>030-037>042-050>054-066-201200-
   NORTHEAST IOWA
  
CITY           SKY/WX    TMP DP  RH WIND       PRES   REMARKS
CEDAR RAPIDS   LGT SNOW  25  24  96 E25G36    29.83F FOG     WCI   9  
CHARLES CITY * LGT SNOW  25  23  93 E21G31    29.86F WCI  10          
CLINTON *      LGT SNOW  27  25  92 E24       29.92F FOG     WCI  12  
DECORAH *      LGT SNOW  23  23 100 E16G24    29.91F VSB 1   WCI  10  
DUBUQUE        LGT SNOW  25  22  88 E22       29.93F FOG     WCI  10  
OELWEIN *      MOCLDY    25  25 100 E23       29.86F FOG     WCI  10  
WATERLOO       CLOUDY    26  23  88 E21G30    29.85F FOG     WCI  12  
$$
 
IAZ064-065-067-068-078-201200-
   EAST CENTRAL IOWA
  
CITY           SKY/WX    TMP DP  RH WIND       PRES   REMARKS
DAVENPORT      LGT SNOW  27  24  89 E20G31    29.91F FOG     WCI  13  
IOWA CITY      LGT SNOW  28  25  88 E20G30    29.87F FOG     WCI  15  
MT. PLEASANT * MIX PCPN  32  32 100 E15       29.85F WCI  22          
MUSCATINE *    LGT SNOW  28  27  93 E14G23    29.90F WCI  17          
QUAD CITIES    LGT SNOW  29  26  89 E20       29.89F FOG     WCI  16  
$$
 
IAZ062-063-075>077-085>089-095>099-201200-
   SOUTHEAST IOWA
  
CITY           SKY/WX    TMP DP  RH WIND       PRES   REMARKS
BURLINGTON     FRZ RAIN  30  26  85 E12       29.86S FOG     WCI  20  
FAIRFIELD *    CLOUDY    28  27  93 E29G53    29.81F FOG     WCI  13  
FORT MADISON * MIX PCPN  28  28 100 E10       29.86F WCI  19          
KEOKUK *       CLOUDY    30  30 100 E16G24    29.84F FOG     WCI  19  
OSKALOOSA *    LGT SNOW  28  26  96 SE20      29.81F WCI  14          
OTTUMWA        LGT SNOW  28  26  92 SE17      29.81F FOG     WCI  16  
WASHINGTON *   LGT SNOW  28  28 100 E26       29.83F WCI  13          
$$

ABBREVIATIONS USED IN REMARKS
   TC - TEMPERATURES IN CELSIUS
  WCI - WIND CHILL INDEX
   HX - HEAT INDEX
  VSB - VISIBILITY  
$$